Location: Alpine Heights
(32.8181°N, 116.7809°W)
Time: 07:44:39
(UTC+00:00)

Cosmos 1727 Rocket - Pass Details

Date: 14 April 2021
Orbit: 962 x 995 km, 82.9° (Epoch: 13 May)

Event Time Altitude Azimuth Distance (km) Brightness Sun altitude
Rises 12:05:52 0° 187° (S) 3,633 6.7 -15.4°
Reaches altitude 10° 12:08:21 10° 188° (S) 2,692 6.0 -14.9°
Maximum altitude 12:14:31 80° 276° (W) 986 3.9 -13.7°
Drops below altitude 10° 12:20:46 10° 3° (N) 2,726 6.7 -12.4°
Sets 12:23:18 0° 5° (N) 3,682 7.4 -11.9°
